Date,TemperatureHighF,TemperatureAvgF,TemperatureLowF,DewpointHighF,DewpointAvgF,DewpointLowF,HumidityHigh,HumidityAvg,HumidityLow,PressureMaxIn,PressureMinIn,WindSpeedMaxMPH,WindSpeedAvgMPH,GustSpeedMaxMPH,PrecipitationSumIn
2013-1-1,27.6,17.3,8.7,10.6,1.8,-3.8,81,53,31,30.67,30.53,29,6,29,0.00
2013-1-2,31.0,19.5,11.4,7.1,-1.0,-5.8,51,40,27,30.77,30.58,25,6,28,0.00
2013-1-3,40.4,20.9,6.9,6.2,-2.8,-9.0,49,36,21,30.79,30.69,10,1,12,0.00
2013-1-4,49.4,31.5,19.7,14.6,6.9,-1.8,49,36,22,30.70,30.39,12,1,13,0.00
2013-1-5,41.5,28.6,20.6,13.4,4.1,-5.2,53,35,20,30.66,30.39,29,4,36,0.00
2013-1-6,56.4,37.0,21.6,7.5,-3.6,-12.3,24,18,9,30.64,30.19,19,2,23,0.00
2013-1-7,54.1,41.3,31.1,9.7,1.1,-11.7,29,19,10,30.19,29.99,38,7,39,0.00
2013-1-8,39.1,35.2,31.3,17.0,11.9,-4.4,47,38,16,30.49,29.95,46,22,52,0.00
2013-1-9,60.3,43.0,31.7,20.7,13.0,4.7,41,30,17,30.58,30.19,25,4,31,0.00
2013-1-10,53.2,40.3,32.0,10.5,4.4,1.2,31,22,13,30.20,29.64,21,3,23,0.00
2013-1-11,39.9,25.5,11.3,19.9,1.6,-10.9,69,36,23,30.07,29.43,48,14,51,0.00
2013-1-12,17.5,8.4,-4.2,2.5,-5.6,-13.1,79,54,34,30.56,30.06,31,6,40,0.00
2013-1-13,10.8,1.6,-5.6,0.4,-5.1,-11.8,79,73,57,30.80,30.55,15,2,15,0.00
2013-1-14,14.6,4.6,-7.7,5.8,-3.4,-13.8,79,69,40,30.84,30.71,26,3,27,0.00
2013-1-15,29.5,23.2,5.9,11.8,3.2,-14.5,48,41,35,30.76,30.64,21,2,26,0.00
2013-1-16,50.8,35.4,23.6,20.4,14.6,8.8,64,43,29,30.66,30.52,15,2,18,0.00
2013-1-17,51.8,41.0,21.6,18.1,13.0,2.9,64,33,20,30.76,30.51,34,4,39,0.00
2013-1-18,47.6,41.1,36.8,6.3,4.1,2.0,25,21,16,30.51,30.25,46,23,50,0.00
2013-1-19,53.5,41.4,34.7,5.8,3.3,-1.1,26,21,13,30.47,30.27,43,17,48,0.00
2013-1-20,47.1,36.9,19.0,12.5,5.2,-0.8,61,27,16,30.47,30.30,40,11,45,0.00
2013-1-21,46.2,38.0,32.5,11.1,5.5,-0.6,31,26,18,30.47,30.32,46,22,50,0.00
2013-1-22,57.3,46.3,39.2,0.4,-4.3,-13.4,18,12,7,30.36,30.22,47,19,52,0.00
2013-1-23,59.2,49.8,44.0,2.9,-3.5,-16.3,17,11,6,30.33,30.22,35,11,46,0.00
2013-1-24,53.2,46.1,39.0,25.5,10.0,-2.0,50,25,14,30.26,30.06,47,15,51,0.00
2013-1-25,49.2,43.0,34.3,27.1,24.2,20.9,64,47,39,30.30,30.21,36,11,37,0.00
2013-1-26,53.7,43.2,32.6,31.5,24.5,20.4,90,49,32,30.25,29.89,29,6,38,0.04
2013-1-27,51.8,40.0,31.6,31.8,25.8,14.0,92,61,31,30.00,29.86,33,5,33,0.00
2013-1-28,45.6,33.0,19.8,26.7,18.5,11.9,91,58,33,29.97,29.76,23,3,24,0.00
2013-1-29,26.7,17.8,7.4,17.5,2.8,-5.7,90,54,30,30.40,29.95,27,8,28,0.07
2013-1-30,28.7,20.8,8.3,14.1,4.3,-6.4,60,49,37,30.40,30.26,46,14,61,0.00
2013-1-31,38.2,31.3,27.3,19.7,14.7,10.6,66,50,41,30.47,30.26,46,17,49,0.01
2013-2-1,39.4,33.1,29.2,19.0,14.9,11.3,55,47,40,30.47,30.31,44,16,47,0.00
2013-2-2,49.2,37.5,27.7,12.6,10.3,6.9,46,33,21,30.58,30.44,43,16,45,0.00
2013-2-3,49.2,41.8,29.4,10.0,-0.4,-7.7,43,17,9,30.51,30.13,35,14,38,0.00
2013-2-4,43.2,36.9,32.2,11.9,6.4,2.1,35,28,21,30.20,30.08,49,23,51,0.00
2013-2-5,51.7,41.3,32.2,22.5,16.5,9.9,42,36,31,30.29,30.04,39,13,46,0.00
2013-2-6,46.1,39.8,28.6,29.1,19.5,13.0,89,46,34,30.29,29.99,28,7,28,0.00
2013-2-7,47.9,31.3,16.9,19.4,14.1,-3.2,86,53,26,30.46,30.27,13,2,15,0.00
2013-2-8,48.9,34.5,24.3,16.9,0.3,-6.9,51,23,15,30.37,29.97,18,2,18,0.00
2013-2-9,36.2,28.2,19.0,21.5,16.2,9.6,89,62,43,29.97,29.78,21,4,23,0.00
2013-2-10,26.0,21.8,13.4,18.6,10.2,4.9,82,61,47,30.44,29.87,21,4,23,0.00
2013-2-11,20.9,13.7,4.7,15.9,9.0,0.2,92,81,73,30.59,30.44,11,2,13,0.00
2013-2-12,40.0,25.1,10.0,6.9,0.4,-6.7,74,36,18,30.59,30.42,33,6,38,0.03
2013-2-13,39.1,29.5,23.3,14.9,8.7,4.9,49,41,31,30.43,30.24,51,18,51,0.00
2013-2-14,33.9,23.8,11.3,18.7,12.0,7.5,92,63,39,30.66,30.28,30,7,37,0.01
2013-2-15,34.4,22.3,8.6,19.5,9.9,4.6,92,63,30,30.79,30.65,38,5,38,0.11
2013-2-16,48.1,35.9,27.2,16.2,11.2,6.9,51,36,24,30.67,30.23,49,21,52,0.00
2013-2-17,55.0,41.0,26.8,12.4,4.5,-1.4,50,22,11,30.24,29.77,44,12,46,0.00
2013-2-18,31.2,24.7,12.3,11.4,2.8,-2.1,58,39,24,30.47,29.90,32,9,38,0.00
2013-2-19,44.1,24.8,10.9,13.4,4.4,-0.8,61,44,17,30.48,30.16,12,2,13,0.00
2013-2-20,36.5,24.5,13.8,19.5,10.5,4.8,92,56,36,30.16,29.94,13,2,17,0.00
2013-2-21,25.4,17.0,9.9,18.8,12.8,6.3,89,83,71,30.34,30.03,10,1,11,0.18
2013-2-22,31.7,21.1,9.9,20.8,11.5,0.3,92,67,41,30.39,30.24,42,5,47,0.04
2013-2-23,38.7,27.3,19.6,20.3,10.6,2.3,80,49,37,30.25,29.98,46,14,50,0.02
2013-2-24,22.4,20.6,8.3,20.3,16.9,3.8,92,85,81,30.53,30.03,11,1,13,0.00
2013-2-25,38.9,22.4,5.8,20.8,11.4,1.6,86,64,37,30.56,30.22,10,2,14,0.33
2013-2-26,29.9,23.1,14.3,22.5,15.4,6.5,86,73,50,30.54,30.14,12,1,14,0.07
2013-2-27,30.2,20.0,9.9,10.1,4.3,-4.2,76,52,33,30.70,30.54,29,7,31,0.07
2013-2-28,33.0,25.2,18.0,12.2,5.6,-1.2,54,43,34,30.73,30.58,37,12,37,0.00
2013-3-1,43.4,34.0,25.1,21.9,13.9,4.9,54,43,35,30.67,30.59,34,8,35,0.03
2013-3-2,51.1,41.8,35.7,24.6,21.4,17.5,54,44,31,30.60,30.23,34,16,41,0.00
2013-3-3,57.6,45.0,37.8,26.4,20.0,15.1,63,37,25,30.23,29.73,51,18,59,0.00
2013-3-4,39.7,25.3,13.5,25.6,15.7,1.4,89,68,43,30.54,29.82,33,8,39,0.07
2013-3-5,42.3,29.8,15.6,20.0,8.0,-6.3,71,40,18,30.66,30.48,39,8,39,0.02
2013-3-6,59.0,46.7,31.5,24.2,12.5,-1.2,48,25,14,30.48,29.98,35,7,37,0.00
2013-3-7,60.0,47.1,34.0,23.9,16.7,10.6,50,30,18,30.11,29.96,25,4,27,0.00
2013-3-8,45.6,35.8,29.2,28.9,20.2,11.3,88,54,40,30.10,29.91,13,2,16,0.00
2013-3-9,30.4,27.6,13.7,27.5,23.8,8.2,92,86,65,30.45,29.87,10,1,13,0.05
2013-3-10,44.2,27.1,10.3,25.7,14.4,3.2,79,60,38,30.57,30.43,40,2,46,0.32
2013-3-11,42.7,35.4,24.0,26.3,20.3,12.4,90,56,41,30.44,30.14,47,18,57,0.00
2013-3-12,40.4,25.2,19.1,29.6,21.0,16.7,99,85,51,30.65,30.41,32,4,39,0.23
2013-3-13,55.3,46.5,37.0,28.3,22.5,17.8,56,39,26,30.64,30.42,47,15,47,0.00
2013-3-14,65.1,52.1,44.2,26.8,20.0,15.8,38,29,17,30.45,30.25,33,11,37,0.00
2013-3-15,66.1,55.5,45.9,26.6,22.2,19.3,40,28,19,30.25,29.93,34,13,40,0.00
2013-3-16,50.2,41.1,32.6,36.0,28.0,21.1,80,60,40,30.05,29.93,29,3,30,0.01
2013-3-17,46.6,37.0,26.3,27.9,20.4,3.5,71,52,27,30.04,29.74,44,10,48,0.00
2013-3-18,40.2,29.6,21.4,15.1,7.6,0.5,54,39,27,30.29,30.04,39,16,44,0.00
2013-3-19,45.5,35.0,19.9,10.3,-0.6,-8.5,65,23,10,30.61,30.22,42,17,46,0.00
2013-3-20,53.6,34.2,14.8,23.0,12.4,0.9,77,45,19,30.59,30.01,31,4,41,0.00
2013-3-21,50.9,37.9,28.5,34.3,15.2,5.1,88,40,28,30.02,29.68,42,12,45,0.00
2013-3-22,37.8,26.3,16.9,23.3,13.8,5.5,92,60,37,30.27,29.99,18,3,21,0.01
2013-3-23,19.2,14.7,6.4,16.2,10.2,1.9,92,82,72,30.69,30.24,9,2,13,0.00
2013-3-24,25.9,15.7,3.3,13.6,5.2,-3.2,81,64,34,30.75,30.62,23,4,23,0.01
2013-3-25,30.4,16.3,3.2,15.7,6.4,-2.1,92,66,42,30.81,30.72,16,3,17,0.02
2013-3-26,53.6,33.6,12.8,27.4,16.0,4.2,69,49,29,30.73,30.27,33,8,36,0.05
2013-3-27,52.2,37.6,27.0,34.7,26.5,19.2,83,65,35,30.36,30.25,22,3,30,0.00
2013-3-28,56.3,43.1,32.2,32.7,25.5,19.1,72,51,36,30.36,30.28,16,2,19,0.00
2013-3-29,58.5,45.0,34.4,34.5,26.7,23.7,68,50,31,30.34,30.24,32,6,32,0.00
2013-3-30,56.5,45.7,33.5,33.3,25.8,21.4,92,47,30,30.38,30.17,34,8,36,0.00
2013-3-31,61.3,46.1,28.7,32.3,20.8,14.3,92,45,17,30.36,30.17,34,10,39,0.00
2013-4-1,50.7,35.6,25.8,33.9,25.8,19.6,92,68,46,30.36,30.21,12,2,15,0.04
2013-4-2,34.8,31.8,30.2,33.5,30.2,28.5,100,94,92,30.44,30.31,6,1,9,0.14
2013-4-3,55.9,40.0,26.3,44.7,32.5,23.9,100,77,35,30.47,30.34,22,2,25,0.33
2013-4-4,62.0,53.4,38.6,28.4,24.6,19.9,61,34,20,30.39,30.13,22,8,26,0.00
2013-4-5,63.0,52.9,39.5,34.7,23.5,17.9,81,33,22,30.13,29.79,31,8,33,0.05
2013-4-6,55.0,45.1,38.0,28.2,21.8,16.9,57,40,25,30.09,29.90,33,12,36,0.00
2013-4-7,53.6,44.5,35.1,31.7,24.4,18.8,80,46,30,30.04,29.83,38,15,43,0.00
2013-4-8,56.8,43.6,25.0,32.5,26.6,21.3,90,53,33,29.92,29.58,34,5,34,0.03
2013-4-9,24.7,14.5,6.0,21.9,10.7,1.8,92,85,74,30.65,29.89,12,3,13,0.02
2013-4-10,25.6,12.9,-0.3,19.0,7.6,-4.7,93,79,57,30.70,30.42,27,2,27,0.01
2013-4-11,44.1,35.1,22.1,33.7,23.9,12.0,91,64,50,30.42,30.13,33,8,41,0.12
2013-4-12,52.1,37.8,29.1,32.4,27.7,18.6,92,70,28,30.23,30.11,35,6,38,0.00
2013-4-13,56.5,43.7,27.6,32.4,20.4,12.1,90,44,22,30.18,29.60,40,8,51,0.02
2013-4-14,36.2,31.1,25.1,32.4,14.9,3.3,92,54,27,30.04,29.60,40,14,41,0.00
2013-4-15,31.1,23.3,15.6,22.5,17.9,10.5,92,80,44,30.41,30.02,23,2,31,0.00
2013-4-16,29.7,21.7,15.3,24.3,18.4,12.4,92,87,78,30.42,30.29,11,1,12,0.00
2013-4-17,28.3,20.9,9.9,23.3,17.5,6.2,92,87,78,30.58,30.29,12,2,15,0.00
2013-4-18,30.5,17.7,5.5,18.9,7.9,0.2,87,67,41,30.70,30.54,36,5,36,0.00
2013-4-19,38.8,31.3,22.9,23.4,15.1,7.7,61,51,43,30.64,30.29,42,20,47,0.01
2013-4-20,47.4,39.5,33.7,33.8,25.6,20.5,73,57,44,30.30,30.16,30,7,35,0.00
2013-4-21,52.0,41.4,33.8,28.6,22.7,18.7,70,48,29,30.31,30.18,33,12,37,0.00
2013-4-22,42.9,30.3,15.8,32.4,23.6,13.0,89,77,51,30.58,30.09,29,6,32,0.00
2013-4-23,31.1,20.3,13.1,19.9,14.1,9.9,92,77,57,30.70,30.52,12,3,12,0.00
2013-4-24,45.2,30.6,16.8,18.9,13.3,8.6,75,51,28,30.66,30.56,30,8,32,0.01
2013-4-25,59.6,41.4,25.8,33.5,18.4,9.2,60,40,21,30.56,30.19,20,4,22,0.00
2013-4-26,60.7,46.6,33.7,27.0,21.6,16.9,59,38,21,30.45,30.26,18,3,21,0.00
2013-4-27,65.5,52.9,39.2,24.6,18.5,14.4,47,27,17,30.42,30.17,26,9,27,0.00
2013-4-28,68.8,58.3,49.2,29.4,22.8,17.2,39,25,20,30.17,29.90,40,14,43,0.00
2013-4-29,68.9,56.7,41.6,32.6,27.9,21.3,64,36,19,29.98,29.66,37,8,40,0.00
2013-4-30,58.1,46.9,31.7,37.1,31.1,22.3,90,58,26,30.10,29.64,19,4,21,0.17
2013-5-1,31.6,26.1,16.5,29.5,23.0,13.6,99,88,78,31.00,30.10,12,2,13,0.04
2013-5-2,39.4,25.9,12.7,26.0,17.4,8.3,89,71,45,31.17,30.88,11,2,11,0.57
2013-5-3,53.6,39.5,22.8,33.5,24.2,14.8,86,55,36,30.88,30.40,13,2,14,0.01
2013-5-4,51.6,40.4,30.7,35.3,27.4,21.7,77,60,43,30.48,30.32,15,3,16,0.00
2013-5-5,50.2,39.7,29.7,35.1,26.3,20.1,87,60,41,30.47,30.32,14,3,16,0.05
2013-5-6,59.0,46.2,35.0,39.7,34.1,30.3,86,65,39,30.36,30.10,14,3,16,0.00
2013-5-7,64.1,50.8,39.9,41.4,33.5,28.6,90,53,32,30.13,30.00,32,8,32,0.55
2013-5-8,49.1,41.6,36.6,41.2,36.1,31.3,92,81,63,30.34,30.07,17,2,22,1.34
2013-5-9,51.9,42.3,35.8,42.8,37.6,32.2,94,84,62,30.43,30.31,19,2,21,0.24
2013-5-10,60.3,45.2,34.2,46.0,35.4,29.8,86,70,38,30.54,30.41,18,2,21,0.01
2013-5-11,59.3,47.8,36.0,47.1,37.1,30.3,83,67,39,30.58,30.39,17,3,22,0.11
2013-5-12,70.6,58.6,45.4,41.5,34.7,29.6,63,42,28,30.44,30.17,24,4,30,0.00
2013-5-13,79.4,67.1,56.6,43.2,35.6,29.6,44,32,18,30.18,30.00,30,8,32,0.00
2013-5-14,80.1,65.6,55.9,44.4,36.0,31.6,53,34,20,30.00,29.87,26,9,30,0.06
2013-5-15,73.5,61.2,48.8,43.9,37.1,31.6,77,42,25,29.97,29.87,22,4,24,0.00
2013-5-16,73.2,60.3,47.9,41.2,35.9,32.2,77,42,23,29.94,29.84,35,9,43,0.00
2013-5-17,81.3,64.2,46.6,42.8,33.5,20.1,61,35,15,29.91,29.73,32,4,33,0.00
2013-5-18,66.7,58.5,47.8,38.0,28.3,18.8,50,32,20,29.87,29.74,40,9,49,0.00
2013-5-19,60.5,51.4,44.2,32.5,29.6,25.2,55,43,28,29.96,29.83,41,16,41,0.00
2013-5-20,56.9,49.3,39.6,42.0,35.5,26.6,89,60,38,30.14,29.93,22,5,26,0.01
2013-5-21,62.7,49.6,37.3,35.6,27.1,20.6,61,43,25,30.18,30.02,21,5,28,0.00
2013-5-22,70.4,53.2,37.5,45.1,34.4,27.7,91,51,31,30.15,29.99,18,4,18,0.24
2013-5-23,61.4,50.0,42.6,50.1,45.0,40.7,96,84,62,30.15,30.05,12,3,17,0.00
2013-5-24,78.6,60.1,43.0,45.5,37.4,24.2,92,49,18,30.13,29.98,19,4,23,0.01
2013-5-25,79.8,63.2,44.2,46.4,36.6,23.3,82,42,17,30.02,29.87,15,3,20,0.00
2013-5-26,79.7,63.9,53.2,38.8,28.1,20.8,40,26,15,29.91,29.82,26,4,31,0.00
2013-5-27,74.2,63.8,50.0,30.0,23.0,14.2,42,21,13,29.85,29.70,30,8,30,0.00
2013-5-28,72.9,57.7,43.7,44.9,33.5,25.4,56,41,21,29.81,29.61,21,4,24,0.00
2013-5-29,58.4,48.5,40.2,46.3,35.9,27.8,90,64,36,29.83,29.63,42,9,42,0.17
2013-5-30,59.6,51.8,43.9,29.1,25.3,20.3,54,37,24,29.98,29.72,56,15,65,0.00
2013-5-31,60.1,51.6,42.5,25.3,19.8,14.4,45,30,18,30.14,29.94,45,14,50,0.00
2013-6-1,65.1,53.1,43.8,40.0,31.0,19.0,63,43,29,30.32,30.13,22,6,26,0.00
2013-6-2,75.8,65.4,36.5,41.7,35.0,25.7,69,35,22,30.31,29.90,18,6,21,0.00
2013-6-3,78.7,66.2,52.4,35.6,28.6,23.0,38,25,15,29.91,29.70,38,8,45,0.00
2013-6-4,67.7,55.6,44.6,49.9,39.4,23.6,89,56,28,30.24,29.86,18,3,22,0.09
2013-6-5,57.8,45.2,41.0,49.0,42.2,38.5,98,89,66,30.35,30.22,12,3,12,0.05
2013-6-6,73.3,56.4,40.2,44.1,38.6,32.6,95,55,29,30.33,30.15,16,3,17,0.01
2013-6-7,75.8,59.4,45.0,51.3,41.0,34.5,69,52,34,30.20,29.85,20,3,22,0.01
2013-6-8,72.4,63.0,49.4,51.2,41.8,34.5,70,47,36,30.04,29.73,29,6,33,0.00
2013-6-9,84.3,65.6,44.6,44.8,38.2,31.6,73,41,21,30.09,29.93,18,5,23,0.00
2013-6-10,89.2,76.2,62.1,38.8,33.7,29.0,35,22,12,29.95,29.72,29,10,33,0.00
2013-6-11,87.1,75.4,60.8,36.0,27.8,17.2,30,18,8,29.82,29.66,40,10,41,0.00
2013-6-12,84.7,71.9,56.3,47.2,32.3,21.7,55,24,18,30.02,29.82,19,5,21,0.00
2013-6-13,83.4,65.1,49.7,56.0,48.3,36.9,85,57,24,30.00,29.85,27,3,27,0.00
2013-6-14,83.9,69.8,56.8,44.7,36.1,23.3,57,30,14,29.93,29.81,24,6,30,0.00
2013-6-15,76.0,62.4,46.2,50.5,44.8,39.7,80,54,36,30.08,29.88,19,3,22,0.00
2013-6-16,73.1,65.0,51.3,46.5,38.1,31.5,70,39,22,30.17,30.03,33,8,33,0.01
2013-6-17,75.7,61.4,48.7,56.2,42.6,32.0,82,51,35,30.17,30.06,15,3,17,0.15
2013-6-18,78.3,61.0,46.0,56.2,46.1,40.2,85,60,32,30.14,29.91,16,3,18,0.01
2013-6-19,90.2,68.0,47.4,49.2,39.1,16.4,84,44,10,30.00,29.67,31,5,33,0.00
2013-6-20,83.4,69.1,55.8,38.9,27.5,16.0,37,21,16,29.85,29.72,18,5,21,0.00
2013-6-21,86.9,69.4,52.0,51.7,36.4,22.3,57,33,12,29.85,29.73,20,4,22,0.00
2013-6-22,78.6,64.0,49.2,49.8,39.5,25.2,66,44,16,29.90,29.72,26,5,32,0.00
2013-6-23,78.6,62.0,47.9,49.1,38.7,25.5,72,43,25,29.99,29.82,22,5,27,0.00
2013-6-24,83.0,66.6,48.8,45.9,35.6,22.2,67,37,14,29.92,29.74,30,4,33,0.00
2013-6-25,80.2,70.4,58.4,39.8,32.5,25.5,31,25,21,29.96,29.76,31,11,35,0.00
2013-6-26,93.1,75.3,58.0,43.3,35.7,31.6,40,25,14,30.02,29.91,24,5,28,0.00
2013-6-27,92.6,78.1,64.8,44.8,38.9,33.1,41,25,18,30.10,29.97,18,5,20,0.00
2013-6-28,87.0,72.2,56.7,60.4,47.3,35.5,84,43,30,30.15,29.99,18,4,24,0.15
2013-6-29,77.3,64.1,53.5,57.6,51.6,46.2,86,65,37,30.17,30.09,15,2,17,0.02
2013-6-30,75.4,63.2,55.6,59.3,52.1,48.0,90,68,42,30.20,30.10,13,3,16,0.07
2013-7-1,76.2,61.5,50.8,54.4,49.5,42.8,83,66,44,30.31,30.19,18,3,18,0.02
2013-7-2,78.8,63.1,48.9,51.8,46.1,40.6,84,56,35,30.28,30.13,16,4,19,0.00
2013-7-3,84.2,65.9,49.6,48.8,44.1,37.6,70,48,28,30.15,29.90,20,4,25,0.00
2013-7-4,83.2,69.9,59.0,52.2,44.0,38.6,53,40,28,29.96,29.85,20,5,21,0.00
2013-7-5,81.4,66.5,56.7,58.5,49.4,42.1,82,56,32,29.87,29.78,25,4,25,0.15
2013-7-6,82.1,69.9,55.6,50.3,47.0,43.1,78,46,27,29.94,29.82,42,9,50,0.06
2013-7-7,83.7,70.3,57.7,56.5,49.3,43.4,74,49,32,29.98,29.89,36,6,40,0.12
2013-7-8,85.5,77.4,63.0,49.2,43.4,37.9,51,30,20,30.01,29.92,36,11,44,0.00
2013-7-9,88.1,75.3,62.6,46.3,39.9,34.7,43,29,17,30.10,30.00,19,4,22,0.00
2013-7-10,89.6,71.0,55.6,55.9,46.6,39.1,60,43,23,30.11,29.93,16,3,19,0.00
2013-7-11,93.6,76.5,60.3,53.5,47.2,40.0,56,38,18,30.01,29.73,29,6,33,0.00
2013-7-12,85.9,69.3,59.5,58.2,50.2,44.2,89,54,30,29.98,29.75,30,6,31,0.33
2013-7-13,84.0,66.1,57.6,60.7,54.0,48.9,85,67,35,30.14,29.98,22,3,24,0.03
2013-7-14,71.7,63.2,55.2,59.3,53.3,48.0,90,71,53,30.20,30.08,15,2,17,0.29
2013-7-15,73.0,61.6,53.7,63.8,56.9,50.2,96,85,68,30.18,30.08,16,2,18,0.43
2013-7-16,80.4,64.0,49.4,55.0,49.4,43.4,92,64,29,30.20,30.13,20,3,20,0.01
2013-7-17,85.2,67.4,52.1,56.7,50.2,44.5,77,56,32,30.20,30.05,15,3,16,0.00
2013-7-18,86.7,71.4,60.9,56.9,51.7,46.7,86,52,31,30.09,29.94,22,6,27,0.09
2013-7-19,77.6,66.9,57.2,57.6,53.1,48.0,83,62,42,30.14,30.01,17,3,20,0.00
2013-7-20,83.6,67.9,53.6,57.9,49.2,42.9,73,53,32,30.04,29.89,17,3,20,0.00
2013-7-21,85.3,70.7,55.8,58.0,46.9,31.6,73,45,19,29.93,29.83,17,4,19,0.00
2013-7-22,88.7,77.6,65.0,55.4,36.5,22.3,49,24,10,29.89,29.79,23,7,25,0.00
2013-7-23,85.8,74.0,61.6,54.6,38.0,21.7,71,29,11,30.03,29.82,16,4,18,0.00
2013-7-24,77.7,65.2,56.5,57.9,52.0,43.3,80,63,43,30.15,29.98,21,4,25,0.03
2013-7-25,73.6,61.3,52.9,57.9,50.5,46.4,95,69,38,30.28,30.01,20,3,22,0.95
2013-7-26,81.8,63.8,51.1,54.7,48.3,42.3,83,60,28,30.31,30.15,14,2,16,0.00
2013-7-27,76.7,64.2,53.5,56.1,47.7,37.3,94,56,32,30.16,29.97,21,3,24,0.11
2013-7-28,68.4,57.4,52.4,60.2,54.6,51.0,96,91,69,30.03,29.93,11,2,12,0.09
2013-7-29,70.7,60.8,54.2,59.3,51.5,46.0,92,72,55,30.21,29.97,19,2,21,1.12
2013-7-30,78.8,65.9,54.9,57.0,47.7,41.3,77,54,30,30.26,30.17,33,6,33,0.00
2013-7-31,82.4,68.2,54.7,55.3,48.0,42.6,75,50,28,30.27,30.11,16,3,16,0.00
2013-8-1,84.2,69.2,55.7,55.4,45.9,40.6,73,47,22,30.17,29.92,16,3,18,0.00
2013-8-2,89.6,73.9,60.7,50.2,44.8,38.7,59,37,18,29.93,29.86,33,11,40,0.00
2013-8-3,84.7,66.8,56.0,66.4,50.7,42.4,92,58,31,30.22,29.92,25,3,29,0.77
2013-8-4,81.2,68.1,57.3,56.2,47.0,42.5,71,48,29,30.17,30.01,21,6,22,0.00
2013-8-5,79.4,67.0,57.8,56.3,47.1,40.6,86,51,28,30.04,29.94,22,4,26,0.44
2013-8-6,82.3,69.3,62.0,54.1,44.9,37.4,56,42,29,30.01,29.94,27,7,30,0.00
2013-8-7,71.5,61.3,53.0,52.3,46.6,37.1,78,59,40,30.05,29.98,12,2,14,0.00
2013-8-8,73.7,62.9,49.7,56.4,48.8,38.8,75,60,45,30.23,30.03,15,4,16,0.00
2013-8-9,70.1,59.2,51.4,50.3,45.4,38.7,73,61,45,30.27,30.16,19,3,20,0.00
2013-8-10,81.4,63.8,50.5,58.9,44.5,38.8,74,51,28,30.27,30.13,17,3,18,0.02
2013-8-11,71.5,66.6,55.6,53.4,46.0,38.8,71,48,35,30.18,30.09,15,3,24,0.03
2013-8-12,75.1,60.9,51.6,52.7,46.4,39.7,87,60,34,30.29,30.14,20,3,23,0.18
2013-8-13,69.2,58.6,52.5,53.7,47.1,42.0,86,66,45,30.29,30.17,21,4,23,0.37
2013-8-14,72.8,59.5,48.4,56.6,45.6,39.6,82,61,37,30.29,30.14,17,2,17,0.15
2013-8-15,78.3,65.4,52.7,54.2,41.3,33.0,63,42,28,30.22,30.10,20,4,20,0.02
2013-8-16,85.4,68.5,53.2,47.1,40.6,32.4,61,38,21,30.18,30.08,16,3,16,0.00
2013-8-17,88.4,77.2,57.5,45.1,38.4,30.0,53,26,15,30.14,29.95,18,4,20,0.00
2013-8-18,84.5,72.5,62.3,47.8,41.1,33.3,44,32,20,30.05,29.94,18,5,19,0.00
2013-8-19,89.6,74.4,59.3,48.8,41.8,38.2,47,32,20,30.03,29.92,20,4,29,0.00
2013-8-20,90.4,76.0,63.6,44.5,39.6,34.5,40,28,16,29.95,29.85,20,4,24,0.75
2013-8-21,82.2,71.4,61.7,61.2,45.3,40.0,63,40,29,30.06,29.90,16,4,20,0.01
2013-8-22,76.7,62.6,54.4,58.4,50.3,46.1,77,65,46,30.19,30.06,16,2,18,0.01
2013-8-23,79.9,68.4,56.4,53.9,48.6,44.0,78,50,36,30.18,29.93,32,6,37,0.05
2013-8-24,80.8,64.7,53.8,60.1,48.7,44.1,82,58,32,30.12,29.95,20,3,25,0.25
2013-8-25,82.1,66.7,55.9,58.5,48.8,43.4,79,54,29,30.13,30.05,29,4,29,0.03
2013-8-26,82.0,67.4,56.7,58.8,51.8,47.7,87,59,36,30.14,30.04,28,5,33,0.35
2013-8-27,84.0,69.1,57.6,59.0,52.2,48.0,87,57,32,30.12,30.00,15,2,17,0.01
2013-8-28,85.3,70.5,58.1,55.4,49.7,42.5,69,49,32,30.07,29.98,28,2,31,0.00
2013-8-29,87.5,76.8,62.0,52.5,47.2,41.7,57,36,25,30.10,30.03,26,6,33,0.00
2013-8-30,85.8,72.1,63.6,53.3,47.8,42.1,55,43,27,30.10,29.98,28,5,28,0.00
2013-8-31,84.8,68.0,59.3,52.7,46.7,42.5,67,47,28,30.07,29.94,25,4,27,0.02
2013-9-1,74.5,66.0,55.3,57.1,54.1,44.5,82,66,52,30.15,30.07,12,3,15,0.00
2013-9-2,85.9,75.5,56.0,55.7,50.4,43.8,80,43,30,30.13,29.97,17,4,18,0.00
2013-9-3,89.4,74.7,63.4,53.8,48.2,44.0,53,40,27,30.02,29.93,24,5,24,0.00
2013-9-4,87.8,71.5,62.0,52.2,47.9,45.0,56,44,27,30.11,29.99,23,2,25,0.00
2013-9-5,87.9,70.9,59.0,53.4,47.1,42.9,58,44,26,30.13,30.06,15,2,17,0.00
2013-9-6,88.5,73.6,62.3,52.0,45.2,40.5,53,37,25,30.07,29.95,33,5,33,0.00
2013-9-7,87.4,78.2,59.0,51.4,46.9,40.4,55,34,26,30.03,29.92,18,4,20,0.00
2013-9-8,83.5,66.5,57.7,53.6,46.8,39.4,63,50,29,29.96,29.81,20,3,28,0.02
2013-9-9,77.1,61.7,53.3,56.5,49.9,44.5,94,67,40,30.04,29.86,22,3,25,1.07
2013-9-10,59.0,54.7,52.5,56.7,53.2,51.4,97,95,89,30.27,30.01,10,2,10,0.69
2013-9-11,57.3,54.8,53.5,56.7,53.9,52.4,100,97,95,30.30,30.23,12,1,14,4.01
2013-9-12,56.9,54.5,50.8,56.3,53.7,49.9,100,97,96,30.35,30.26,19,4,30,7.76
2013-9-13,69.0,57.5,52.0,61.7,55.1,50.0,100,92,68,30.27,29.94,10,1,12,0.21
2013-9-14,69.9,56.7,49.2,57.1,50.7,45.9,93,81,48,30.10,29.95,23,2,25,0.07
2013-9-15,54.8,51.6,48.9,53.4,50.1,47.9,100,95,92,30.37,30.08,10,1,14,1.77
2013-9-16,67.1,55.1,47.8,60.0,52.2,45.3,98,90,68,30.35,30.12,13,2,13,0.05
2013-9-17,74.3,64.5,54.6,53.4,44.9,40.6,71,50,30,30.17,29.83,24,5,26,0.00
2013-9-18,74.8,62.0,54.9,49.9,42.4,38.7,65,50,29,29.94,29.78,52,8,52,0.02
2013-9-19,61.2,52.2,43.0,47.8,42.2,38.4,87,70,49,30.29,29.90,15,3,16,0.07
2013-9-20,68.2,52.2,39.0,48.7,41.5,35.5,92,70,40,30.34,30.17,15,2,15,0.00
2013-9-21,75.7,62.4,47.2,50.1,39.8,31.4,75,44,28,30.17,29.83,16,3,20,0.00
2013-9-22,69.3,57.9,47.8,51.7,41.4,33.6,87,56,37,29.83,29.59,40,4,46,0.08
2013-9-23,55.4,49.4,43.6,43.8,35.0,28.9,92,59,41,30.20,29.56,40,15,51,0.29
2013-9-24,71.5,57.8,47.1,45.8,34.4,25.0,57,42,31,30.25,29.91,38,7,42,0.00
2013-9-25,77.6,61.8,48.1,46.2,29.6,17.1,45,30,17,29.91,29.48,21,5,21,0.00
2013-9-26,64.5,53.6,43.8,46.0,38.8,28.3,84,58,38,29.82,29.56,16,3,16,0.00
2013-9-27,46.3,42.6,36.0,43.9,40.2,22.8,97,91,56,30.21,29.78,32,3,40,0.32
2013-9-28,60.1,45.9,36.1,32.8,24.1,17.2,61,43,30,30.39,30.19,42,18,46,0.00
2013-9-29,70.5,56.1,42.8,36.1,25.1,17.8,50,31,20,30.33,29.98,33,8,39,0.00
2013-9-30,74.2,62.6,53.0,39.3,30.3,23.2,41,30,20,30.00,29.80,33,7,39,0.00
2013-10-1,68.3,58.4,47.9,46.3,35.7,25.1,72,43,27,30.06,29.91,21,4,25,0.00
2013-10-2,71.6,58.8,44.5,43.4,34.5,26.3,74,41,26,30.04,29.92,15,3,21,0.00
2013-10-3,59.4,46.8,36.2,44.5,38.7,32.3,94,75,54,29.94,29.82,15,3,18,0.14
2013-10-4,42.5,34.5,31.5,40.9,32.4,29.2,98,92,88,30.26,29.89,16,4,18,0.57
2013-10-5,52.5,38.2,26.2,28.1,17.7,5.8,70,45,23,30.56,30.43,35,10,40,0.01
2013-10-6,65.9,51.4,38.9,37.9,27.6,8.2,56,40,24,30.52,30.34,17,3,24,0.00
2013-10-7,74.3,59.6,47.1,41.7,28.1,15.3,51,31,12,30.34,29.96,27,3,29,0.00
2013-10-8,73.3,60.5,48.5,39.2,27.5,17.7,53,29,19,29.96,29.76,26,4,35,0.00
2013-10-9,59.5,50.8,42.5,43.8,34.3,26.5,83,54,34,30.06,29.82,17,3,20,0.00
2013-10-10,54.5,44.9,37.9,43.8,37.5,26.0,91,76,48,30.05,29.65,40,6,45,0.06
2013-10-11,50.8,44.7,39.3,31.4,27.1,25.1,72,50,39,30.23,29.59,72,18,72,0.00
2013-10-12,54.9,42.1,35.1,39.4,35.3,30.6,93,78,50,30.37,30.23,13,2,16,0.00
2013-10-13,61.1,44.7,32.8,44.1,35.5,27.8,86,71,49,30.37,30.06,16,2,20,0.00
2013-10-14,46.6,41.1,33.3,35.3,31.7,25.5,87,69,48,30.36,29.93,34,8,39,0.07
2013-10-15,34.4,30.5,26.8,30.0,26.1,23.3,89,84,74,30.57,30.35,10,3,13,0.02
2013-10-16,49.5,36.1,23.6,29.5,21.6,15.7,92,59,32,30.54,30.33,29,6,30,0.01
2013-10-17,43.0,37.2,30.2,31.3,24.2,15.6,92,61,39,30.34,30.23,32,8,40,0.00
2013-10-18,42.6,32.2,25.8,33.7,25.6,14.5,93,78,43,30.49,30.29,32,4,32,0.32
2013-10-19,53.9,44.4,35.2,24.6,19.6,15.9,49,37,27,30.46,30.07,44,19,51,0.00
2013-10-20,46.7,39.3,27.4,33.8,25.5,19.4,93,61,34,30.36,30.06,36,8,41,0.01
2013-10-21,50.3,37.1,25.4,30.9,24.6,20.4,90,64,37,30.53,30.36,29,6,31,0.22
2013-10-22,61.0,49.5,41.0,34.9,28.0,22.5,57,43,34,30.47,30.25,27,7,29,0.00
2013-10-23,60.8,51.3,37.0,37.1,28.5,21.2,72,42,34,30.35,30.22,21,5,23,0.00
2013-10-24,60.8,43.9,33.5,39.6,31.8,26.1,81,64,30,30.45,30.34,12,2,13,0.00
2013-10-25,65.3,50.1,37.2,36.5,28.1,20.8,65,44,27,30.43,30.26,13,2,15,0.00
2013-10-26,60.8,45.2,32.7,36.5,29.4,21.5,72,55,37,30.50,30.35,13,2,18,0.00
2013-10-27,62.2,52.8,41.1,27.1,22.6,19.2,46,31,23,30.35,29.97,36,14,40,0.00
2013-10-28,44.4,33.3,26.2,29.5,26.0,21.5,94,77,42,30.29,29.98,8,2,10,0.00
2013-10-29,33.4,28.8,25.3,31.5,27.1,23.6,95,93,90,30.35,30.21,9,1,10,0.01
2013-10-30,44.8,34.8,26.3,31.6,24.1,15.4,96,68,38,30.24,30.11,36,8,40,0.15
2013-10-31,42.2,36.0,32.1,23.4,17.8,14.0,62,48,36,30.18,30.03,51,24,53,0.00
2013-11-1,46.2,37.5,32.8,31.0,21.9,16.7,75,55,33,30.49,30.18,33,6,33,0.00
2013-11-2,66.5,49.2,32.6,19.8,12.6,3.9,55,26,10,30.49,29.88,30,9,35,0.00
2013-11-3,59.8,51.2,32.3,25.8,15.6,-0.1,62,25,11,29.89,29.62,39,10,42,0.00
2013-11-4,36.6,29.2,21.8,22.7,16.6,9.9,98,60,39,30.27,29.85,31,5,38,0.00
2013-11-5,34.9,27.5,21.6,19.5,10.3,-0.4,83,51,27,30.53,30.23,40,10,44,0.00
2013-11-6,40.1,33.2,25.4,17.5,11.8,1.9,47,41,35,30.68,30.45,47,23,55,0.00
2013-11-7,59.5,43.4,34.6,27.8,21.0,17.2,54,42,25,30.70,30.20,40,12,40,0.00
2013-11-8,56.4,49.7,43.1,22.8,17.8,11.6,37,28,22,30.20,29.89,53,17,67,0.00
2013-11-9,57.7,47.4,34.1,31.0,22.7,17.5,67,38,25,30.38,30.14,33,9,36,0.00
2013-11-10,61.8,50.9,35.4,24.2,19.8,15.7,60,30,21,30.41,30.31,29,11,31,0.00
2013-11-11,61.2,45.2,25.9,32.4,23.3,18.2,92,46,20,30.78,30.30,29,7,33,0.00
2013-11-12,57.4,41.6,25.9,31.0,25.7,10.2,93,56,30,30.86,30.64,12,3,15,0.00
2013-11-13,60.6,50.4,37.9,18.8,13.8,8.2,33,23,16,30.65,30.15,32,12,39,0.00
2013-11-14,55.1,44.9,37.7,32.7,20.8,10.1,56,39,21,30.17,29.91,29,8,32,0.00
2013-11-15,55.1,44.0,32.4,28.0,16.1,4.4,76,34,20,29.91,29.61,40,14,51,0.00
2013-11-16,48.8,38.3,30.3,28.9,19.4,8.0,92,48,28,29.75,29.41,53,14,60,0.00
2013-11-17,51.1,41.0,28.8,21.1,16.2,10.5,71,38,20,30.34,29.72,67,17,74,0.00
2013-11-18,55.0,43.7,34.4,20.2,13.1,6.8,48,30,16,30.37,30.23,44,15,46,0.00
2013-11-19,55.4,44.7,37.7,29.9,18.0,6.9,67,35,21,30.24,29.89,53,12,57,0.00
2013-11-20,52.8,42.7,29.9,29.6,23.1,19.6,73,47,29,30.16,29.93,46,10,46,0.00
2013-11-21,28.6,13.3,6.5,21.7,8.8,2.3,92,82,72,31.09,30.16,9,3,13,0.00
2013-11-22,34.6,22.9,12.9,24.7,15.6,-1.9,86,74,36,31.16,31.00,6,0,8,0.12
2013-11-23,31.1,22.8,18.2,24.5,17.7,12.5,92,81,63,31.02,30.73,10,2,12,0.09
2013-11-24,38.3,29.9,18.8,31.1,24.9,13.1,99,82,41,30.73,30.33,10,1,10,0.07
2013-11-25,36.2,31.3,24.6,25.1,19.4,10.6,73,62,37,30.65,30.39,14,1,17,0.01
2013-11-26,45.9,31.5,21.8,24.1,18.1,14.1,80,59,34,30.80,30.59,12,2,16,0.00
2013-11-27,56.3,44.0,29.6,20.8,16.3,13.3,53,33,23,30.59,30.31,26,8,27,0.00
2013-11-28,46.0,35.2,27.6,28.0,20.6,14.6,67,55,36,30.44,30.34,10,2,12,0.00
2013-11-29,50.1,44.7,38.0,20.5,17.2,14.1,42,33,27,30.41,30.29,42,17,47,0.00
2013-11-30,50.4,42.2,35.8,17.1,14.6,11.5,42,33,23,30.40,30.31,34,17,41,0.00
2013-12-1,44.3,39.2,35.3,23.9,18.3,13.4,55,43,36,30.37,30.06,46,17,52,0.00
2013-12-2,47.9,41.8,38.0,24.0,21.8,19.0,54,45,35,30.09,29.68,57,28,68,0.00
2013-12-3,42.6,32.3,4.9,28.7,18.7,0.3,92,60,38,29.96,29.63,44,11,52,0.00
2013-12-4,7.4,1.8,-6.5,1.3,-3.4,-11.4,92,78,70,30.70,29.95,13,3,13,0.00
2013-12-5,6.3,-3.3,-11.4,-0.3,-9.3,-16.3,83,75,62,30.84,30.67,10,2,11,0.06
2013-12-6,6.9,-3.4,-9.3,-1.0,-8.9,-14.5,92,77,66,30.96,30.81,11,2,11,0.00
2013-12-7,12.9,2.2,-5.4,5.2,-3.2,-10.0,92,78,67,30.93,30.40,14,2,14,0.00
2013-12-8,20.2,10.6,-4.2,12.3,1.9,-8.0,88,69,43,30.56,30.28,34,5,39,0.00
2013-12-9,14.4,6.8,-4.6,-0.9,-6.8,-10.7,84,55,36,30.76,30.53,67,21,68,0.00
2013-12-10,30.6,24.6,14.0,11.8,6.6,-2.5,72,46,39,30.73,30.36,62,27,68,0.00
2013-12-11,42.7,27.9,10.7,12.9,6.9,-3.4,81,45,15,30.71,30.62,44,16,50,0.00
2013-12-12,54.7,44.1,32.8,11.4,4.8,-3.2,27,19,15,30.65,30.08,43,13,46,0.03
2013-12-13,46.7,37.7,25.9,17.3,11.0,4.1,59,34,22,30.37,29.96,40,10,42,0.00
2013-12-14,39.8,29.6,19.2,13.2,9.1,6.0,60,43,28,30.58,30.37,52,9,62,0.00
2013-12-15,46.1,37.7,30.5,17.7,14.9,11.7,51,39,28,30.52,30.30,56,27,67,0.00
2013-12-16,49.5,43.9,40.2,19.3,14.7,7.2,40,31,23,30.44,30.27,56,27,64,0.00
2013-12-17,53.3,45.7,37.1,16.4,13.1,9.4,32,27,22,30.52,30.21,43,16,46,0.00
2013-12-18,61.3,50.0,41.6,16.7,11.6,8.7,33,21,15,30.21,29.82,40,17,45,0.00
2013-12-19,53.9,39.3,12.6,22.4,18.0,9.5,89,46,23,29.98,29.63,29,6,34,0.00
2013-12-20,42.4,21.5,10.8,28.7,13.9,7.7,94,75,37,30.12,29.97,29,3,33,0.00
2013-12-21,33.4,23.9,16.2,20.5,12.5,5.5,88,63,37,30.27,29.90,22,4,25,0.00
2013-12-22,28.8,21.7,12.1,14.4,10.2,5.8,89,63,44,30.62,30.27,41,11,45,0.00
2013-12-23,37.6,25.1,9.9,19.9,14.1,6.6,90,65,43,30.69,30.46,51,14,54,0.00
2013-12-24,39.9,33.1,22.2,28.6,17.5,3.3,83,53,37,30.57,30.29,62,22,69,0.02
2013-12-25,42.7,30.9,22.6,12.1,5.7,-0.1,47,34,25,30.74,30.55,44,8,51,0.00
2013-12-26,50.5,38.4,33.2,13.9,7.4,-0.4,39,27,21,30.59,30.50,46,14,48,0.00
2013-12-27,58.0,44.4,34.7,23.0,18.2,12.1,46,35,23,30.52,30.22,15,4,21,0.00
2013-12-28,49.9,40.0,16.5,20.7,18.6,12.4,92,44,30,30.37,30.02,36,12,38,0.00
2013-12-29,33.9,23.5,14.3,21.0,12.1,2.6,88,65,31,30.55,30.28,46,8,60,0.07
2013-12-30,36.6,31.1,24.4,13.9,10.7,5.1,53,42,33,30.56,30.35,49,18,51,0.00
2013-12-31,46.0,38.2,32.9,22.5,17.8,11.5,51,43,37,30.42,30.14,59,20,60,0.00
2014-1-1,36.3,30.2,17.1,25.8,17.8,5.8,92,62,31,30.56,30.10,38,8,43,0.00
2014-1-2,44.6,36.3,26.9,14.5,7.8,1.9,51,31,18,30.59,30.25,44,22,46,0.00